Regional Weather Roundup
Issued by NWS Cleveland, OH

Home | Current Version | Previous Version | Graphics & Text | Print | Product List | Glossary On
Versions: 1 2 3 4 5 6 7 8 9 10 11 12 13 14 15 16 17 18 19 20 21 22 23 24 25 26 27 28 29 30 31 32 33 34 35 36 37 38 39 40 41 42 43 44 45 46 47 48 49 50
000
ASUS41 KCLE 200500
RWRCLE
OHIO REGIONAL WEATHER ROUNDUP
NATIONAL WEATHER SERVICE WILMINGTON, OH
1200 AM EST SAT DEC 20 2014

NOTE: "FAIR" INDICATES FEW OR NO CLOUDS BELOW 12,000 FEET WITH NO
SIGNIFICANT WEATHER AND/OR OBSTRUCTIONS TO VISIBILITY.

OHZ001>008-015>018-024>027-034-035-043-044-200600-
   NORTHWEST OHIO

CITY           SKY/WX    TMP DP  RH WIND       PRES   REMARKS
DEFIANCE       CLOUDY    28  23  81 CALM      30.28S
FINDLAY        CLOUDY    30  23  75 CALM      30.26S
TOLEDO EXPRESS CLOUDY    29  21  72 CALM      30.27F
TOLEDO METCALF CLOUDY    30  24  78 E3        30.29S
LIMA           CLOUDY    29  22  75 CALM      30.25S
$$

OHZ009>014-019>023-028>033-038-089-200600-
   NORTHEAST OHIO

CITY           SKY/WX    TMP DP  RH WIND       PRES   REMARKS
CLE-HOPKINS    CLOUDY    29  20  69 CALM      30.29F
CLE-LAKEFRONT  CLOUDY    31  21  66 CALM      30.27F
CUY CO. ARPT   NOT AVBL
LORAIN-ELYRIA  CLOUDY    29  22  75 CALM      30.27F
ASHTABULA      CLOUDY    29  21  72 CALM      30.26F
AKRON-CANTON   CLOUDY    28  19  69 N5        30.25F WCI  23
WOOSTER        NOT AVBL
MANSFIELD      CLOUDY    28  21  75 E3        30.25R
YOUNGSTOWN     CLOUDY    27  19  72 N8        30.25S WCI  19
$$

OHZ042-051>053-060>062-070>072-077>081-200600-
  SOUTHWEST OHIO

CITY           SKY/WX    TMP DP  RH WIND       PRES   REMARKS
CINC-COVINGTON CLOUDY    31  20  63 E3        30.25S
CINC-LUNKEN    CLOUDY    31  23  72 E3        30.28F
HAMILTON       CLOUDY    31  23  72 NE5       30.28S WCI  26
DAYTON         NOT AVBL
WRIGHT-PAT AFB NOT AVBL
DAYTON GENERAL CLOUDY    30  23  75 CALM      30.24S
WILMINGTON     CLOUDY    28  22  78 E5        30.24F WCI  23
$$

OHZ036-037-039>041-045>050-054>059-063>069-073>076-082>088-200600-
  CENTRAL AND SOUTHEAST OHIO

CITY           SKY/WX    TMP DP  RH WIND       PRES   REMARKS
COLUMBUS       CLOUDY    29  22  75 VRB6      30.26F WCI  23
OSU AIRPORT    CLOUDY    29  22  75 NE5       30.25F WCI  24
BOLTON FIELD   NOT AVBL
RICKENBACK AFB NOT AVBL
NEWARK         CLOUDY    30  23  75 NE3       30.26F
MARION         CLOUDY    29  21  72 E3        30.26F
LANCASTER      CLOUDY    37  23  56 E5        30.26F
ZANESVILLE     CLOUDY    29  22  75 E3        30.27S
NEW PHILLY     CLOUDY    30  21  69 NE3       30.28S
$$


USA.gov is the U.S. government's official web portal to all federal, state and local government web resources and services.